COSMOS 343

Satellite information

Favourite Embed

Satellite Type and Status

PAYLOADIN ORBIT

Key statistics

Satellite COSMOS 343 at a glance.

Uptime

20173

Days in orbit

Revolutions

≈ 12.6

Per day

Orbit

LEO

Low Earth Orbit

Inclination

74.0

Latest

Satellite identification and parameters

Extended collection of information and parameters for COSMOS 343.

Object identification

Identified? True

Debris? False

Object name: COSMOS 343

International designator: 1970-036H

Object number (NORAD): 4390

Object ID (CCSDS): 4390

Country: COMMONWEALTH OF INDEPENDENT STATES (CIS)

Current information (Y/N): Y

RCS size: MEDIUM

Orbital parameters

Period: 114.244 minutes

Inclination: 74.0276 deg

SMA: 7799.205 km

Apoapsis: 1467.59 km

Periapsis: 1374.55 km

RAAN: 153.9925 deg

Eccentricy: 0.0059647

Argument of periapsis: 152.5524 deg

Mean anomaly: 321.4712 deg

Mean motion: 12.60454799 rev/day

Mean motion (dot): -0.00000018 rev/day2

B* drag term: -0.000010528 1/REarth

Two-line elements (TLE)

Creation date: July 17, 2025, 5:14 p.m.

Reference frame: TEME

Reference center: EARTH

Epoch: July 17, 2025, 8:31 a.m. UTC

TLE line 0: 0 COSMOS 343

TLE line 1: 1 04390U 70036H 25198.35546720 -.00000018 00000-0 -10528-4 0 9990

TLE line 2: 2 04390 74.0276 153.9925 0059647 152.5524 321.4712 12.60454799540908

Live tracking on map

Real-time ground track for satellite COSMOS 343.

In-orbit conjunctions

There are no conjunctions computed for COSMOS 343, at the moment. Check back to stay up to date, as we update our databases every day.

Go to all conjunctions

Associated space launch

Military communications satellites

COSMOS 343 was lifted into orbit during the mission ‘Kosmos-3M | Strela-1M 1-8’, on board a Kosmos-3M space rocket.

The launch took place on April 25, 1970, 5:09 p.m. from 132/2.

For more information about the launch, click the button.

Launch to space Kosmos-3M | Strela-1M 1-8
Kosmos-3M | Strela-1M 1-8

Agency: N/A

Status: Launch Successful

Launch date: April 25, 1970, 5:09 p.m. UTC

Rocket: Kosmos-3M

Launch pad: 132/2

Location: Plesetsk Cosmodrome, Russian Federation

...

Latest news about this satellite

There are no fresh news available about this satellite. Check back as we update our databases every day.


Newsletter sign-up

Weekly statistics, charts and insights to help you stay on top of the space industry.